Regional Weather Roundup
Issued by NWS

Home | Current Version | Previous Version | Text Only | Print | Product List | Glossary Off
Versions: 1 2 3 4 5 6 7 8 9 10 11 12 13 14 15 16 17 18 19 20 21 22 23 24 25 26 27 28 29 30 31 32 33 34 35 36 37 38 39 40 41 42 43 44 45 46 47 48 49 50

000
ASUS43 KOAX 281510
RWRNE

WEATHER ROUNDUP FOR NEBRASKA
NATIONAL WEATHER SERVICE OMAHA NE
900 AM CST SUN DEC 28 2014

NOTES: SATELLITE DATA IS BEING USED TO AUGMENT CLOUD COVER ABOVE
       12000 FEET.
       "FAIR" INDICATES FEW OR NO CLOUDS BELOW 12,000 FEET WITH NO
       SIGNIFICANT WEATHER AND/OR OBSTRUCTIONS TO VISIBILITY.

  * THESE STATIONS DO NOT REPORT WEATHER SUCH AS RAIN...SNOW OR FOG.

NEZ001>004-019>022-054>056-281600-
NEBRASKA PANHANDLE

CITY           SKY/WX    TMP DP  RH WIND       PRES   REMARKS
SCOTTSBLUFF    CLOUDY     5   1  83 E6        29.95S WCI  -6
ALLIANCE       CLOUDY     9   5  84 S5        29.94F WCI   1
CHADRON        CLOUDY     8   2  76 N3        29.96S
KIMBALL        CLOUDY    17  11  75 SW7       29.91S WCI   8
SIDNEY         CLOUDY     9   2  73 W7        29.96F WCI  -2
$$

NEZ057>060-069>072-079>082-281600-
SOUTHWEST NEBRASKA

CITY           SKY/WX    TMP DP  RH WIND       PRES   REMARKS
NORTH PLATTE   PTCLDY     1  -3  83 NW3       30.04F
IMPERIAL       PTCLDY     5  -1  76 NW5       30.03R WCI  -4
LEXINGTON      PTCLDY     6   3  86 W8        30.08R WCI  -7
MCCOOK         PTCLDY     8   4  83 W8        30.07S WCI  -4
OGALLALA       PTCLDY     1  -3  85 W6        30.02F WCI -10
$$

NEZ005>010-023>029-035>040-094-281600-
NORTH CENTRAL NEBRASKA

CITY           SKY/WX    TMP DP  RH WIND       PRES   REMARKS
VALENTINE      PTCLDY     1  -3  83 W6        30.02S WCI -10
AINSWORTH      PTCLDY     7   2  81 SW3       30.03R
BROKEN BOW     PTCLDY     9   3  77 CALM      30.04R
O`NEILL        PTCLDY     8   4  85 W3        30.07S
ORD            CLEAR      4   0  83 NW5       30.08R WCI  -5
THEDFORD       PTCLDY     8   5  86 CALM      30.02S
$$

NEZ041-046>049-061>064-073>077-083>087-281600-
SOUTH CENTRAL NEBRASKA

CITY           SKY/WX    TMP DP  RH WIND       PRES   REMARKS
GRAND ISLAND   CLEAR     11   5  77 SW6       30.11R WCI   1
AURORA         PTCLDY    13   8  83 W5        30.11R WCI   5
HASTINGS       CLEAR     15   7  70 SW6       30.08R WCI   6
HEBRON         CLEAR     17  12  80 CALM      30.16R
HOLDREGE       MOCLDY    12   5  75 W6        30.07S WCI   2
KEARNEY *      PTCLDY    10   3  72 W7        30.08S WCI   0
$$

NEZ011>018-030>034-042>045-281600-
NORTHEAST NEBRASKA

CITY           SKY/WX    TMP DP  RH WIND       PRES   REMARKS
NORFOLK        CLEAR     10   6  84 W6        30.10R WCI   0
ALBION         PTCLDY     4   0  81 CALM      30.09S
BLAIR          CLEAR     17  14  86 S3        30.12R
COLUMBUS *     PTCLDY     7   0  72 NW5       30.13R WCI  -2
FREMONT        PTCLDY    13  10  89 CALM      30.14R
TEKAMAH        PTCLDY    14   9  80 CALM      30.15R
WAYNE          PTCLDY     6   3  84 CALM      30.12R
$$

NEZ050>053-065>068-078-088>093-281600-
SOUTHEAST NEBRASKA

CITY           SKY/WX    TMP DP  RH WIND       PRES   REMARKS
LINCOLN        CLEAR     18  12  77 SW6       30.16S WCI  10
OMAHA EPPLEY   CLEAR     19  15  84 S3        30.17R
BEATRICE       SUNNY     17  14  86 CALM      30.17R
FALLS CITY     SUNNY     22  18  85 SW5       30.19R WCI  16
NEBRASKA CITY  SUNNY     20  15  80 SW9       30.16R WCI  10
PLATTSMOUTH    SUNNY     19  14  81 SW9       30.15R WCI   8
$$

NEZ044-045-051>053-067-281600-
OMAHA AREA

CITY           SKY/WX    TMP DP  RH WIND       PRES   REMARKS
OMAHA EPPLEY   CLEAR     19  15  84 S3        30.17R
BLAIR          CLEAR     17  14  86 S3        30.12R
FREMONT        PTCLDY    13  10  89 CALM      30.14R
MILLARD        CLEAR     19  14  82 CALM      30.15S
OFFUTT AFB     CLEAR     17  14  86 SE2       30.16R
PLATTSMOUTH    SUNNY     19  14  81 SW9       30.15R WCI   8
WAHOO          FAIR      16  11  81 CALM      30.14S
$$


USA.gov is the U.S. government's official web portal to all federal, state and local government web resources and services.